Date String (YYYY-MM-DD hh:mm:ss) UTC,Instrument flags,Ambient pressure (hPa),Sample flow (lpm),Bypass flow (lpm),Sample temperature (°C),Ambient temperature (°C),ASC tube jacket temperature (°C),LED temperature (°C),Box temperature (°C),Sample RH (%),Span deviation,Mass concentration (μg/m³),Mass concentration (μg/m³),Mass concentration (μg/m³)
DateTimeUTC,F1_M11,P_M11,Q1_M11,Q2_M11,T1_M11,T2_M11,T3_M11,T4_M11,T5_M11,U1_M11,ZSPAN_M11,X2_M11,X0_M11,X1_M11
2023-05-16 07:00:00,,0836.6,5.01,0.00,28.7,27.1,00.0,37.0,30.3,27.7,0000.0,0007.63,0011.25,0007.24
2023-05-16 07:01:00,,0836.7,5.00,0.00,28.7,27.1,00.0,37.0,30.3,27.6,0000.1,0007.54,0011.26,0007.17
2023-05-16 07:02:00,,0836.6,5.01,0.00,28.7,27.1,00.0,37.0,30.3,27.6,0000.1,0007.48,0010.71,0007.12
2023-05-16 07:03:00,,0836.5,5.00,0.00,28.7,27.1,00.0,37.0,30.3,27.6,0000.0,0007.43,0010.71,0007.05
2023-05-16 07:04:00,,0836.5,5.00,0.00,28.7,27.1,00.0,37.0,30.3,27.6,0000.0,0007.35,0010.66,0006.99
2023-05-16 07:05:00,,0836.5,5.00,0.00,28.7,27.2,00.0,37.0,30.3,27.7,0000.0,0007.30,0010.90,0006.95
2023-05-16 07:06:00,,0836.5,5.00,0.00,28.7,27.2,00.0,37.0,30.3,27.7,0000.5,0007.27,0011.14,0006.94
2023-05-16 07:07:00,,0836.5,4.99,0.00,28.7,27.2,00.0,37.0,30.3,27.6,0001.1,0007.26,0011.21,0006.93
2023-05-16 07:08:00,,0836.4,5.00,0.00,28.7,27.2,00.0,37.0,30.3,27.6,0000.2,0007.16,0011.34,0006.87
2023-05-16 07:09:00,,0836.4,5.00,0.00,28.7,27.2,00.0,37.0,30.3,27.6,0000.0,0007.21,0011.58,0006.91
2023-05-16 07:10:00,,0836.4,5.00,0.00,28.7,27.2,00.0,37.0,30.3,27.5,0000.0,0007.25,0011.69,0006.94
2023-05-16 07:11:00,,0836.3,5.00,0.00,28.7,27.2,00.0,37.0,30.3,27.5,0000.1,0007.29,0011.84,0006.96
2023-05-16 07:12:00,,0836.3,5.00,0.00,28.7,27.2,00.0,37.0,30.3,27.5,0000.7,0007.33,0011.47,0007.00
2023-05-16 07:13:00,,0836.2,5.00,0.00,28.7,27.2,00.0,37.0,30.3,27.5,0000.6,0007.37,0011.14,0007.03
2023-05-16 07:14:00,,0836.2,5.00,0.00,28.7,27.2,00.0,37.0,30.3,27.5,0000.4,0007.37,0011.09,0007.06
2023-05-16 07:15:00,,0836.2,5.00,0.00,28.7,27.2,00.0,37.0,30.3,27.5,0000.6,0007.41,0011.14,0007.08
2023-05-16 07:16:00,,0836.2,5.00,0.00,28.7,27.2,00.0,37.0,30.3,27.6,0000.1,0007.45,0010.95,0007.11
2023-05-16 07:17:00,,0836.2,5.00,0.00,28.7,27.2,00.0,37.1,30.3,27.6,0000.0,0007.52,0010.71,0007.15
2023-05-16 07:18:00,,0836.2,5.00,0.00,28.8,27.2,00.0,37.1,30.3,27.8,0000.0,0007.59,0011.21,0007.17
2023-05-16 07:19:00,,0836.2,4.99,0.00,28.8,27.2,00.0,37.1,30.3,27.7,0000.0,0007.63,0011.10,0007.21
2023-05-16 07:20:00,,0836.2,4.99,0.00,28.8,27.2,00.0,37.1,30.3,27.7,0000.0,0007.63,0011.11,0007.22
2023-05-16 07:21:00,,0836.2,5.00,0.00,28.8,27.2,00.0,37.1,30.3,27.7,-001.2,0007.59,0011.00,0007.19
2023-05-16 07:22:00,,0836.2,5.01,0.00,28.7,27.2,00.0,37.1,30.3,27.7,-000.5,0007.53,0010.87,0007.16
2023-05-16 07:23:00,,0836.1,5.01,0.00,28.7,27.2,00.0,37.1,30.3,27.8,0000.0,0007.48,0010.78,0007.10
2023-05-16 07:24:00,,0836.1,5.00,0.00,28.7,27.2,00.0,37.1,30.3,27.8,0000.0,0007.38,0010.69,0007.00
2023-05-16 07:25:00,,0836.1,4.98,0.00,28.7,27.2,00.0,37.1,30.3,27.7,0000.0,0007.25,0010.60,0006.85
2023-05-16 07:26:00,,0836.1,5.01,0.00,28.7,27.2,00.0,37.1,30.3,27.7,0000.0,0007.12,0010.69,0006.70
2023-05-16 07:27:00,,0836.1,5.01,0.00,28.7,27.2,00.0,37.1,30.3,27.6,0000.0,0006.95,0010.83,0006.53
2023-05-16 07:28:00,,0836.1,4.98,0.00,28.7,27.2,00.0,37.1,30.3,27.5,0000.0,0006.78,0010.82,0006.33
2023-05-16 07:29:00,,0836.1,5.00,0.00,28.7,27.2,00.0,37.1,30.3,27.5,0000.0,0006.59,0011.05,0006.14
2023-05-16 07:30:00,,0836.1,4.99,0.00,28.7,27.2,00.0,37.1,30.3,27.5,0000.0,0006.46,0011.37,0005.98
2023-05-16 07:31:00,,0836.1,5.00,0.00,28.7,27.2,00.0,37.1,30.3,27.6,0000.0,0006.39,0011.89,0005.83
2023-05-16 07:32:00,,0836.1,5.00,0.00,28.7,27.2,00.0,37.1,30.3,27.6,0000.0,0006.38,0013.05,0005.72
2023-05-16 07:33:00,,0836.1,5.00,0.00,28.7,27.2,00.0,37.1,30.3,27.6,0000.0,0006.43,0013.79,0005.64
2023-05-16 07:34:00,,0836.1,5.00,0.00,28.7,27.2,00.0,37.1,30.3,27.6,0000.0,0006.46,0015.40,0005.58
2023-05-16 07:35:00,,0836.1,5.01,0.00,28.7,27.2,00.0,37.1,30.3,27.6,0000.0,0006.54,0016.63,0005.58
2023-05-16 07:36:00,,0836.1,5.00,0.00,28.7,27.2,00.0,37.1,30.3,27.5,0000.0,0006.71,0019.04,0005.59
2023-05-16 07:37:00,,0836.1,4.99,0.00,28.7,27.2,00.0,37.1,30.3,27.6,0000.0,0006.80,0020.10,0005.61
2023-05-16 07:38:00,,0836.0,5.00,0.00,28.7,27.2,00.0,37.1,30.3,27.6,0000.0,0006.92,0020.18,0005.67
2023-05-16 07:39:00,,0835.9,5.00,0.00,28.7,27.2,00.0,37.1,30.3,27.4,0000.0,0006.98,0020.33,0005.69
2023-05-16 07:40:00,,0836.0,5.00,0.00,28.7,27.2,00.0,37.1,30.3,27.4,0000.0,0007.01,0020.18,0005.69
2023-05-16 07:41:00,,0835.9,5.00,0.00,28.7,27.1,00.0,37.1,30.3,27.5,0000.0,0007.12,0019.91,0005.76
2023-05-16 07:42:00,,0835.9,5.00,0.00,28.7,27.1,00.0,37.1,30.3,27.3,0000.0,0007.05,0019.16,0005.73
2023-05-16 07:43:00,,0835.9,5.00,0.00,28.7,27.1,00.0,37.1,30.3,27.3,0000.0,0006.93,0018.87,0005.64
2023-05-16 07:44:00,,0835.9,4.99,0.00,28.7,27.1,00.0,37.1,30.3,27.2,0000.0,0006.75,0018.38,0005.51
2023-05-16 07:45:00,,0835.9,5.00,0.00,28.7,27.1,00.0,37.1,30.3,27.2,0000.0,0006.62,0017.48,0005.42
2023-05-16 07:46:00,,0835.8,5.00,0.00,28.7,27.2,00.0,37.1,30.3,27.1,0000.0,0006.44,0016.21,0005.30
2023-05-16 07:47:00,,0835.8,5.01,0.00,28.7,27.2,00.0,37.1,30.3,26.9,0000.0,0006.16,0013.93,0005.12
2023-05-16 07:48:00,,0835.8,5.00,0.00,28.7,27.2,00.0,37.1,30.3,26.9,0000.0,0005.89,0012.23,0004.97
2023-05-16 07:49:00,,0835.8,5.00,0.00,28.7,27.2,00.0,37.1,30.3,27.0,0000.0,0005.72,0011.76,0004.85
2023-05-16 07:50:00,,0835.7,5.00,0.00,28.8,27.2,00.0,37.1,30.3,27.0,0000.0,0005.58,0012.09,0004.75
2023-05-16 07:51:00,,0835.7,5.00,0.00,28.8,27.2,00.0,37.1,30.4,26.9,0000.0,0005.47,0011.95,0004.68
2023-05-16 07:52:00,,0835.7,5.00,0.00,28.8,27.2,00.0,37.1,30.4,26.9,0000.0,0005.30,0011.48,0004.56
2023-05-16 07:53:00,,0835.7,5.00,0.00,28.8,27.2,00.0,37.1,30.4,26.9,0000.0,0005.17,0011.11,0004.48
2023-05-16 07:54:00,,0835.7,5.00,0.00,28.8,27.2,00.0,37.1,30.4,26.9,0000.0,0005.12,0010.28,0004.48
2023-05-16 07:55:00,,0835.6,5.00,0.00,28.8,27.2,00.0,37.1,30.4,26.9,0000.0,0005.10,0009.89,0004.50
2023-05-16 07:56:00,,0835.6,5.01,0.00,28.8,27.2,00.0,37.1,30.4,26.9,0000.0,0005.05,0009.46,0004.48
2023-05-16 07:57:00,,0835.6,5.00,0.00,28.8,27.2,00.0,37.1,30.4,26.9,0000.0,0004.97,0009.24,0004.45
2023-05-16 07:58:00,,0835.6,5.01,0.00,28.8,27.2,00.0,37.1,30.4,26.9,0000.0,0004.99,0009.67,0004.48
2023-05-16 07:59:00,,0835.6,4.99,0.00,28.8,27.2,00.0,37.1,30.4,26.9,0000.0,0005.05,0009.97,0004.53
